Home > Weather > Casper > Past weeks

Flag for U.S.A. Weather for the Past 2 Weeks in Casper, Wyoming, U.S.A.

Now
34 °F

Passing clouds.


Feels Like: 28 °F
Forecast: 31 / 44 °F
Wind: 7 mph from West

Location: Natrona County International Airport

Current Time: Feb 12, 2016 at 1:19:03 AM

Latest Report: Feb 12, 2016 at 12:53 AM


Visibility: 10 mi

Pressure: 30.25 "Hg (24.88 "Hg at 1569m altitude)

Humidity: 70%

Dew point: 25 °F

Location of CasperLocation

Historic Weather in Casper — Graph

°F

Casper Temperature Yesterday

Maximum temperature yesterday: 44 °F (at 12:53 PM)
Minimum temperature yesterday: 32 °F (at 9:53 PM)
Average temperature yesterday: 38 °F

High & Low Weather Summary for the Past Weeks

 TemperatureHumidityPressure
High44 °F (Feb 11, 12:53 PM)92% (Jan 30, 8:53 AM)30.62 "Hg (Jan 30, 8:53 AM)
Low-3 °F (Feb 1, 1:53 AM)45% (Jan 29, 12:53 PM)29.47 "Hg (Jan 30, 4:53 AM)
Average26 °F67%30.14 "Hg
* Reported Jan 27 11:53 PM — Feb 11 11:53 PM, Casper, Weather by CustomWeather, © 2016

Note: Actual official high and low records may vary slightly from our data, if they occured in-between our weather recording intervals... More about our weather records

Advertising

Casper Weather History for the Previous 24 Hours

 ConditionsComfort  
Time TempWeatherWind HumidityBarometerVisibility
11:53 PM
Thu, Feb 11
33 °FOvercast.6 mph72%30.26 "Hg10 mi
10:53 PM33 °FClear.9 mph72%30.27 "Hg10 mi
9:53 PM32 °FClear.10 mph75%30.27 "Hg10 mi
8:53 PM36 °FClear.10 mph70%30.25 "Hg10 mi
7:53 PM37 °FClear.9 mph67%30.27 "Hg10 mi
6:53 PM37 °FPassing clouds.7 mph65%30.27 "Hg10 mi
5:53 PM37 °FPassing clouds.10 mph65%30.27 "Hg10 mi
4:53 PM40 °FSunny.10 mph58%30.24 "Hg10 mi
3:53 PM42 °FSunny.14 mph57%30.20 "Hg10 mi
1:53 PM44 °FSunny.15 mph47%30.16 "Hg10 mi
12:53 PM44 °FSunny.16 mph47%30.18 "Hg10 mi
11:53 AM42 °FSunny.13 mph49%30.19 "Hg10 mi
10:53 AM41 °FSunny.17 mph47%30.19 "Hg10 mi
9:53 AM40 °FSunny.22 mph49%30.18 "Hg10 mi
8:53 AM39 °FSunny.23 mph48%30.15 "Hg10 mi
7:53 AM37 °FSunny.13 mph50%30.16 "Hg10 mi
6:53 AM37 °FClear.30 mph50%30.13 "Hg10 mi
5:53 AM37 °FClear.22 mph50%30.13 "Hg10 mi
4:53 AM35 °FPassing clouds.26 mph56%30.13 "Hg10 mi
3:53 AM35 °FClear.22 mph54%30.13 "Hg10 mi
2:53 AM35 °FClear.21 mph56%30.13 "Hg10 mi
1:53 AM36 °FClear.13 mph52%30.14 "Hg10 mi
Weather by CustomWeather, © 2016

See weather overviewHow to use our weather pages